Find Starlink 5981

NORAD ID: 56325 Int'l Des: 2023-058 Owner: SPXS Country: US Constellation: starlink operational
LEOCIRCULARRETROGRADESSO

Live Position

Loading 3D Globe...

About Starlink 5981

Description loading...

Upcoming Passes

Passes for default location (London). Set your location on the main map for personalized predictions.

Altitude History

Loading altitude history...

Two-Line Element Set

1 56325U 23058J 26126.44810501 .00020738 00000-0 14417-2 0 9998
2 56325 97.5289 126.9340 0002188 106.7246 253.4221 15.05533794166816
Epoch: May 6, 2026 • Age: 9 hours

Current Status

Altitude 579.0 km
Velocity 7.57 km/s
Sub-Earth Point -77.18°S, 1.67°W
Launch Date Apr 27, 2023
Age 3 years
Type internet

Technical Details

Classification Payload
Mass 300.00 kg
Dry Mass 260.00 kg
Total Mass 300.00 kg
Length 0.20 m
Diameter 2.80 m
Span 9.00 m
Shape Box + pan
Manufacturer SPXS
Bus Type Starlink
Phase Status In Orbit
Owner/State SPXS/US

Most Searched